EDT,Max TemperatureF,Mean TemperatureF,Min TemperatureF,Max Dew PointF,MeanDew PointF,Min DewpointF,Max Humidity, Mean Humidity, Min Humidity, Max Sea Level PressureIn, Mean Sea Level PressureIn, Min Sea Level PressureIn, Max VisibilityMiles, Mean VisibilityMiles, Min VisibilityMiles, Max Wind SpeedMPH, Mean Wind SpeedMPH, Max Gust SpeedMPH,PrecipitationIn, CloudCover, Events, WindDirDegrees
2011-10-1,59,54,46,40,36,34,73,55,39,30.01,29.91,29.82,10,10,10,16,8,25,0.00,1,,318
2011-10-2,61,54,45,40,34,31,79,54,32,30.06,30.00,29.95,10,10,10,15,6,23,0.00,1,,310
2011-10-3,70,56,42,46,39,33,79,54,32,30.16,30.07,30.00,10,10,10,8,3,16,0.00,1,,274
2011-10-4,75,60,46,52,47,43,87,63,40,30.26,30.19,30.13,10,10,10,9,2,17,0.00,0,,327
2011-10-5,80,63,48,56,50,46,96,69,36,30.28,30.22,30.19,10,10,10,5,1,,0.00,0,,37
2011-10-6,75,62,51,54,52,50,97,73,46,30.37,30.28,30.21,10,10,9,7,1,,0.00,0,,56
2011-10-7,75,62,50,54,51,48,96,75,43,30.44,30.37,30.32,10,9,4,6,1,,0.00,0,,64
2011-10-8,73,60,46,52,48,45,97,72,39,30.48,30.43,30.36,10,9,2,9,2,,0.01,0,,58
2011-10-9,73,62,51,55,51,46,89,67,46,30.41,30.33,30.27,10,10,10,10,5,17,0.00,1,,45
2011-10-10,73,66,59,55,52,49,78,65,49,30.29,30.17,30.08,10,10,10,10,7,16,0.00,3,,42
2011-10-11,66,60,55,59,57,55,100,91,70,30.12,30.02,29.91,10,5,2,15,6,20,0.56,8,Rain,28
2011-10-12,75,66,57,63,59,55,100,91,62,29.95,29.85,29.74,10,7,2,7,3,,0.43,7,Rain,345
2011-10-13,72,66,61,64,62,57,100,91,65,29.79,29.66,29.52,10,6,0,15,3,22,0.06,7,Fog-Rain,200
2011-10-14,72,64,57,58,46,37,93,56,30,29.86,29.68,29.56,10,10,8,18,6,31,0.03,3,Rain,266
2011-10-15,73,61,50,43,36,29,77,43,20,30.04,29.92,29.83,10,10,10,15,6,22,0.00,0,,277
2011-10-16,79,62,45,47,41,33,90,47,30,30.11,30.01,29.93,10,10,10,15,4,18,0.00,0,,210
2011-10-17,82,68,54,55,50,44,72,54,36,29.95,29.86,29.80,10,10,10,13,4,21,0.00,0,,197
2011-10-18,80,64,50,61,55,48,100,79,39,29.85,29.76,29.62,10,8,2,8,1,17,0.34,2,Rain,195
2011-10-19,66,55,46,63,57,38,100,93,71,29.61,29.43,29.25,10,5,0,18,5,25,0.33,7,Fog-Rain,53
2011-10-20,60,50,41,40,38,36,87,67,47,29.93,29.71,29.49,10,10,10,12,7,,0.00,3,,235
2011-10-21,63,52,41,42,38,35,89,64,39,30.09,30.02,29.93,10,10,10,7,3,,0.00,0,,313
2011-10-22,64,50,37,43,40,36,93,72,41,30.16,30.09,30.04,10,10,10,6,1,,0.00,0,,282
2011-10-23,68,54,41,48,43,38,93,73,42,30.16,30.08,30.03,10,10,10,7,1,,0.00,0,,248
2011-10-24,73,59,46,49,45,41,96,67,34,30.13,30.06,30.00,10,10,9,8,1,,0.00,1,,263
2011-10-25,72,58,46,48,44,40,93,61,34,30.24,30.16,30.11,10,10,10,7,2,,0.00,0,,242
2011-10-26,75,60,46,50,46,43,93,64,37,30.11,29.99,29.87,10,10,10,10,3,16,0.11,0,,197
2011-10-27,78,62,46,55,49,44,93,66,40,29.88,29.81,29.74,10,10,10,10,3,18,0.00,3,,250
2011-10-28,60,50,39,48,42,37,100,87,64,30.12,30.06,29.89,10,8,2,10,8,18,0.13,8,Rain,55
2011-10-29,53,46,39,41,35,28,100,77,40,30.12,30.00,29.94,10,9,4,16,5,28,0.23,4,Rain,346
2011-10-30,59,45,33,37,31,27,89,62,32,30.28,30.23,30.13,10,10,10,6,2,,0.00,0,,310
2011-10-31,55,44,32,38,34,30,100,86,47,30.30,30.26,30.16,10,5,0,5,2,,0.00,1,Fog,42